Overview Statistics Trail Chart Weather Telemetry Raw packets
 

This is the latest recevied weather packets stored in our database for station/object W7BTL. If no packets are shown the sender has not sent any weather packets the latest 10 day(s).

<< 83 84 85 86 87 88 89 >>
Time Temp. Humidity Pressure Rain* Wind** Luminosity Snow
1788049217 31.67° C 50% 1009.2 hPa 0 mm - 227 W/m² -
1788048911 32.22° C 49% 1009 hPa 0 mm - 251 W/m² -
1788048607 32.22° C 48% 1009 hPa 0 mm - 271 W/m² -
1788048304 32.78° C 48% 1009.1 hPa 0 mm - 289 W/m² -
1788048002 32.78° C 47% 1009.1 hPa 0 mm - 311 W/m² -
1788047695 32.78° C 47% 1009.2 hPa 0 mm - 334 W/m² -
1788047395 32.78° C 47% 1008.8 hPa 0 mm - 346 W/m² -
1788047090 33.33° C 47% 1009.1 hPa 0 mm - 376 W/m² -
1788046786 33.33° C 46% 1009 hPa 0 mm - 397 W/m² -
1788046484 33.89° C 46% 1008.9 hPa 0 mm - 418 W/m² -
1788046184 33.89° C 46% 1009.1 hPa 0 mm - 438 W/m² -
1788045878 33.89° C 46% 1009.1 hPa 0 mm - 462 W/m² -
1788045573 33.89° C 44% 1009.1 hPa 0 mm - 483 W/m² -
1788045269 34.44° C 44% 1009.3 hPa 0 mm - 505 W/m² -
1788044964 35° C 42% 1008.9 hPa 0 mm - 525 W/m² -
1788044662 35° C 41% 1009.1 hPa 0 mm - 545 W/m² -
1788044362 35.56° C 40% 1009.2 hPa 0 mm - 567 W/m² -
1788044060 35.56° C 39% 1009.3 hPa 0 mm - 589 W/m² -
1788043754 36.11° C 38% 1009.2 hPa 0 mm - 612 W/m² -
1788043448 36.11° C 38% 1009.2 hPa 0 mm - 630 W/m² -
1788043148 36.11° C 38% 1009.4 hPa 0 mm - 646 W/m² -
1788042844 36.11° C 38% 1009.5 hPa 0 mm - 669 W/m² -
1788042542 36.11° C 39% 1009.3 hPa 0 mm - 685 W/m² -
1788042237 36.67° C 37% 1009.5 hPa 0 mm - 705 W/m² -
1788041944 36.67° C 38% 1009.7 hPa 0 mm - 724 W/m² -

* Rain latest hour (hover to see other rain measurements)
** Current wind speed in m/s (hover to see current wind gust speed)